Flag for Germany Weather past 2 weeks in Frankfurt, Hesse, Germany

Now
68 °F

Clear.


Feels Like: 68 °F
Forecast: 58 / 70 °F
Wind: 2 mph from North

Location: Frankfurt-M-Flughafen Airport

Current Time: Aug 31, 2015 at 7:50:02 AM

Latest Report: Aug 31, 2015 at 7:20 AM


Visibility: 10 mi

Pressure: 29.95 "Hg

Humidity: 94%

Dew point: 66 °F

Location of FrankfurtLocation

Historic Weather in Frankfurt — Graph

°F

Frankfurt temperature yesterday

Maximum temperature yesterday: 91 °F (at 4:20 PM)
Minimum temperature yesterday: 68 °F (at 6:20 AM)
Average temperature yesterday: 78 °F

Past Weeks' High & Low Weather Summary

 TemperatureHumidityPressure
High91 °F (Aug 30, 4:20 PM)100% (Aug 19, 5:20 AM)30.27 "Hg (Aug 19, 5:20 AM)
Low50 °F (Aug 19, 4:50 AM)21% (Aug 22, 3:20 PM)29.68 "Hg (Aug 23, 5:20 PM)
Average67 °F69%30.00 "Hg
* Reported Aug 16 6:20 AM — Aug 31 6:50 AM, Frankfurt, Weather by CustomWeather, © 2015

Note: Actual official high and low records may vary slightly from our data, if they occured in-between our weather recording intervals... More about our weather records

Advertising

Frankfurt weather history for previous 24 hours

 ConditionsComfort  
Time TempWeatherWind HumidityBarometerVisibility
6:50 AM
Mon, Aug 31
68 °FPassing clouds.7 mph94%29.95 "HgN/A
6:20 AM66 °FPassing clouds.6 mph94%29.95 "HgN/A
5:50 AM68 °FClear.1 mph88%29.95 "Hg10 mi
5:20 AM68 °FClear.2 mph88%29.95 "Hg10 mi
4:50 AM72 °FClear.5 mph83%29.95 "Hg10 mi
4:20 AM70 °FFog.6 mph88%29.98 "HgN/A
3:50 AM68 °FFog.5 mph94%29.95 "HgN/A
3:20 AM70 °FClear.2 mph88%29.98 "Hg10 mi
2:50 AM73 °FClear.3 mph78%29.95 "Hg10 mi
2:20 AM72 °FClear.2 mph83%29.98 "Hg10 mi
1:50 AM73 °FClear.5 mph78%29.98 "Hg10 mi
1:20 AM70 °FClear.3 mph88%29.98 "Hg10 mi
12:50 AM70 °FClear.2 mph88%29.98 "Hg10 mi
12:20 AM70 °FClear.1 mph88%29.98 "Hg10 mi
11:50 PM
Sun, Aug 30
72 °FClear.1 mph83%29.98 "Hg10 mi
11:20 PM73 °FClear.No wind78%29.98 "Hg10 mi
10:50 PM73 °FClear.2 mph78%30.01 "Hg10 mi
10:20 PM73 °FClear.1 mph78%30.01 "Hg10 mi
9:20 PM77 °FClear.1 mph65%30.01 "Hg10 mi
8:50 PM79 °FSunny.2 mph61%30.01 "Hg10 mi
8:20 PM81 °FSunny.3 mph62%29.98 "Hg10 mi
7:50 PM84 °FSunny.3 mph55%29.98 "Hg10 mi
7:20 PM88 °FSunny.3 mph49%29.98 "Hg10 mi
6:50 PM88 °FSunny.3 mph52%29.98 "Hg10 mi
6:20 PM90 °FPassing clouds.5 mph41%29.98 "HgN/A
5:50 PM91 °FPassing clouds.5 mph38%29.98 "HgN/A
5:20 PM91 °FPassing clouds.6 mph38%30.01 "HgN/A
4:50 PM90 °FPassing clouds.6 mph41%30.01 "HgN/A
4:20 PM91 °FSunny.5 mph36%30.01 "Hg10 mi
3:50 PM90 °FPassing clouds.7 mph38%30.01 "HgN/A
3:20 PM90 °FPassing clouds.6 mph41%30.04 "HgN/A
2:50 PM88 °FPassing clouds.10 mph40%30.04 "HgN/A
2:20 PM88 °FPassing clouds.8 mph43%30.04 "HgN/A
1:50 PM86 °FPassing clouds.8 mph46%30.04 "HgN/A
1:20 PM84 °FPassing clouds.9 mph51%30.07 "HgN/A
12:50 PM84 °FPassing clouds.7 mph55%30.07 "HgN/A
12:20 PM82 °FPassing clouds.6 mph62%30.07 "HgN/A
11:50 AM81 °FPassing clouds.6 mph62%30.07 "HgN/A
11:20 AM81 °FPassing clouds.6 mph66%30.07 "HgN/A
10:50 AM79 °FPassing clouds.3 mph65%30.07 "HgN/A
10:20 AM77 °FPassing clouds.8 mph74%30.09 "HgN/A
9:50 AM75 °FPassing clouds.3 mph78%30.09 "HgN/A
9:20 AM75 °FSunny.1 mph74%30.09 "Hg10 mi
8:50 AM73 °FPassing clouds.3 mph78%30.07 "HgN/A
8:20 AM72 °FSunny.2 mph78%30.07 "Hg10 mi
7:50 AM70 °FSunny.2 mph83%30.07 "Hg10 mi
7:20 AM68 °FPassing clouds.3 mph88%30.07 "HgN/A
Weather by CustomWeather, © 2015

See weather overviewHow to use our weather pages